Time,TemperatureF,DewpointF,PressureIn,WindDirection,WindDirectionDegrees,WindSpeedMPH,WindSpeedGustMPH,Humidity,HourlyPrecipIn,Conditions,Clouds,dailyrainin,SoftwareType,DateUTC
2013-01-29 00:03:00,19.0,17.0,27.77,East,94,0.0,1.0,92,0.00,,,0.00,,2013-01-29 05:03:00,
2013-01-29 00:12:00,19.0,17.0,27.77,East,94,0.0,1.0,92,0.00,,,0.00,,2013-01-29 05:12:00,
2013-01-29 00:22:00,19.0,17.0,27.77,ESE,113,1.0,2.0,92,0.00,,,0.00,,2013-01-29 05:22:00,
2013-01-29 00:32:00,19.0,17.0,27.77,ESE,105,0.0,1.0,92,0.00,,,0.00,,2013-01-29 05:32:00,
2013-01-29 00:42:00,19.0,17.0,27.77,ESE,105,0.0,1.0,92,0.00,,,0.00,,2013-01-29 05:42:00,
2013-01-29 00:52:00,19.0,17.0,27.76,East,82,0.0,0.0,92,0.00,,,0.00,,2013-01-29 05:52:00,
2013-01-29 01:02:00,19.0,17.0,27.77,East,95,0.0,1.0,92,0.00,,,0.00,,2013-01-29 06:02:00,
2013-01-29 01:11:00,19.0,17.0,27.77,East,95,0.0,1.0,92,0.00,,,0.00,,2013-01-29 06:11:00,
2013-01-29 01:21:00,19.0,17.0,27.77,East,100,0.0,2.0,92,0.00,,,0.00,,2013-01-29 06:21:00,
2013-01-29 01:32:00,19.0,17.0,27.77,ESE,112,1.0,1.0,92,0.00,,,0.00,,2013-01-29 06:32:00,
2013-01-29 01:42:00,19.0,17.0,27.77,ESE,112,1.0,1.0,92,0.00,,,0.00,,2013-01-29 06:42:00,
2013-01-29 01:52:00,19.0,17.0,27.77,ESE,115,0.0,0.0,92,0.00,,,0.00,,2013-01-29 06:52:00,
2013-01-29 02:01:00,19.0,17.0,27.78,South,191,0.0,0.0,92,0.00,,,0.00,,2013-01-29 07:01:00,
2013-01-29 02:02:00,19.0,17.0,27.77,ESE,115,0.0,0.0,92,0.00,,,0.00,,2013-01-29 07:02:00,
2013-01-29 02:11:00,19.0,17.0,27.77,ESE,115,0.0,0.0,92,0.00,,,0.00,,2013-01-29 07:11:00,
2013-01-29 02:21:00,19.0,17.0,27.78,South,191,0.0,0.0,92,0.00,,,0.00,,2013-01-29 07:21:00,
2013-01-29 02:32:00,19.0,17.0,27.78,South,191,0.0,0.0,92,0.00,,,0.00,,2013-01-29 07:32:00,
2013-01-29 02:42:00,19.0,17.0,27.78,South,191,0.0,0.0,92,0.00,,,0.00,,2013-01-29 07:42:00,
2013-01-29 02:52:00,19.0,17.0,27.78,South,191,0.0,0.0,92,0.00,,,0.00,,2013-01-29 07:52:00,
2013-01-29 03:21:00,19.0,17.0,27.80,SSW,212,0.0,0.0,92,0.00,,,0.00,,2013-01-29 08:21:00,
2013-01-29 03:32:00,19.0,17.0,27.80,SSW,212,0.0,0.0,92,0.00,,,0.00,,2013-01-29 08:32:00,
2013-01-29 03:42:00,19.0,17.0,27.80,SSW,212,0.0,0.0,92,0.00,,,0.00,,2013-01-29 08:42:00,
2013-01-29 03:52:00,19.0,17.0,27.80,SSW,212,0.0,0.0,92,0.00,,,0.00,,2013-01-29 08:52:00,
2013-01-29 04:02:00,19.0,17.0,27.80,SSW,213,0.0,0.0,92,0.00,,,0.00,,2013-01-29 09:02:00,
2013-01-29 04:11:00,19.0,17.0,27.80,SSW,213,0.0,0.0,92,0.00,,,0.00,,2013-01-29 09:11:00,
2013-01-29 04:21:00,19.0,17.0,27.80,SSW,212,0.0,0.0,92,0.00,,,0.00,,2013-01-29 09:21:00,
2013-01-29 04:32:00,19.0,17.0,27.80,SSW,213,0.0,0.0,92,0.00,,,0.00,,2013-01-29 09:32:00,
2013-01-29 04:42:00,19.0,17.0,27.80,SSW,213,0.0,0.0,92,0.00,,,0.00,,2013-01-29 09:42:00,
2013-01-29 04:52:00,19.0,17.0,27.80,SSW,213,0.0,0.0,92,0.00,,,0.00,,2013-01-29 09:52:00,
2013-01-29 05:01:00,19.0,17.0,27.80,SSW,213,0.0,0.0,92,0.00,,,0.00,,2013-01-29 10:01:00,
2013-01-29 05:11:00,19.0,17.0,27.80,SSW,213,0.0,0.0,92,0.00,,,0.00,,2013-01-29 10:11:00,
2013-01-29 05:22:00,19.0,17.0,27.80,SW,218,0.0,1.0,92,0.00,,,0.00,,2013-01-29 10:22:00,
2013-01-29 05:32:00,19.0,17.0,27.81,SW,218,1.0,3.0,91,0.00,,,0.00,,2013-01-29 10:32:00,
2013-01-29 05:42:00,19.0,17.0,27.81,SW,218,1.0,3.0,91,0.00,,,0.00,,2013-01-29 10:42:00,
2013-01-29 05:52:00,18.0,16.0,27.81,WNW,283,0.0,1.0,91,0.00,,,0.00,,2013-01-29 10:52:00,
2013-01-29 06:02:00,18.0,16.0,27.82,West,264,0.0,2.0,92,0.00,,,0.00,,2013-01-29 11:02:00,
2013-01-29 06:11:00,18.0,16.0,27.82,West,264,0.0,2.0,92,0.00,,,0.00,,2013-01-29 11:11:00,
2013-01-29 06:22:00,18.0,16.0,27.83,West,268,0.0,1.0,92,0.00,,,0.00,,2013-01-29 11:22:00,
2013-01-29 06:32:00,17.0,15.0,27.83,SSW,208,0.0,1.0,91,0.00,,,0.00,,2013-01-29 11:32:00,
2013-01-29 06:42:00,17.0,15.0,27.83,SSW,208,0.0,1.0,91,0.00,,,0.00,,2013-01-29 11:42:00,
2013-01-29 06:53:00,17.0,15.0,27.83,SSW,208,0.0,1.0,91,0.00,,,0.00,,2013-01-29 11:53:00,
2013-01-29 07:02:00,17.0,15.0,27.84,West,269,0.0,0.0,92,0.00,,,0.00,,2013-01-29 12:02:00,
2013-01-29 07:12:00,17.0,15.0,27.84,West,269,0.0,0.0,92,0.00,,,0.00,,2013-01-29 12:12:00,
2013-01-29 07:22:00,16.0,14.0,27.83,NNE,26,0.0,1.0,92,0.00,,,0.00,,2013-01-29 12:22:00,
2013-01-29 07:33:00,16.0,14.0,27.84,NNE,24,0.0,0.0,92,0.00,,,0.00,,2013-01-29 12:33:00,
2013-01-29 07:43:00,16.0,14.0,27.84,NNE,24,0.0,0.0,92,0.00,,,0.00,,2013-01-29 12:43:00,
2013-01-29 07:53:00,16.0,14.0,27.84,NNE,24,0.0,0.0,92,0.00,,,0.00,,2013-01-29 12:53:00,
2013-01-29 08:02:00,17.0,15.0,27.85,ENE,73,0.0,2.0,91,0.00,,,0.00,,2013-01-29 13:02:00,
2013-01-29 08:12:00,17.0,15.0,27.85,ENE,73,0.0,2.0,91,0.00,,,0.00,,2013-01-29 13:12:00,
2013-01-29 08:23:00,17.0,15.0,27.85,ENE,73,0.0,2.0,91,0.00,,,0.00,,2013-01-29 13:23:00,
2013-01-29 08:32:00,19.0,17.0,27.88,West,264,0.0,1.0,90,0.00,,,0.00,,2013-01-29 13:32:00,
2013-01-29 08:43:00,19.0,17.0,27.88,West,264,0.0,1.0,90,0.00,,,0.00,,2013-01-29 13:43:00,
2013-01-29 08:53:00,19.0,17.0,27.89,WSW,243,1.0,1.0,90,0.00,,,0.00,,2013-01-29 13:53:00,
2013-01-29 09:02:00,19.0,16.0,27.89,East,88,1.0,2.0,88,0.00,,,0.00,,2013-01-29 14:02:00,
2013-01-29 09:12:00,19.0,17.0,27.89,East,89,1.0,2.0,90,0.00,,,0.00,,2013-01-29 14:12:00,
2013-01-29 09:22:00,19.0,17.0,27.89,East,89,1.0,2.0,90,0.00,,,0.00,,2013-01-29 14:22:00,
2013-01-29 09:33:00,19.0,17.0,27.89,East,89,1.0,2.0,90,0.00,,,0.00,,2013-01-29 14:33:00,
2013-01-29 09:43:00,19.0,17.0,27.89,East,89,1.0,2.0,90,0.00,,,0.00,,2013-01-29 14:43:00,
2013-01-29 09:53:00,20.0,17.0,27.90,ESE,110,1.0,2.0,89,0.00,,,0.00,,2013-01-29 14:53:00,
2013-01-29 10:02:00,20.0,17.0,27.89,East,90,1.0,3.0,89,0.00,,,0.00,,2013-01-29 15:02:00,
2013-01-29 10:12:00,20.0,17.0,27.89,East,90,1.0,3.0,89,0.00,,,0.00,,2013-01-29 15:12:00,
2013-01-29 10:22:00,21.0,18.0,27.89,ESE,113,0.0,3.0,89,0.00,,,0.00,,2013-01-29 15:22:00,
2013-01-29 10:33:00,22.0,19.0,27.91,SE,127,0.0,2.0,88,0.00,,,0.00,,2013-01-29 15:33:00,
2013-01-29 10:43:00,22.0,19.0,27.91,SE,127,0.0,2.0,88,0.00,,,0.00,,2013-01-29 15:43:00,
2013-01-29 10:53:00,22.0,19.0,27.91,SE,127,0.0,2.0,88,0.00,,,0.00,,2013-01-29 15:53:00,
2013-01-29 11:03:00,23.0,19.0,27.91,ENE,68,2.0,5.0,86,0.00,,,0.00,,2013-01-29 16:03:00,
2013-01-29 11:12:00,23.0,19.0,27.91,ENE,68,2.0,5.0,86,0.00,,,0.00,,2013-01-29 16:12:00,
2013-01-29 11:23:00,23.0,19.0,27.91,ENE,68,2.0,5.0,86,0.00,,,0.00,,2013-01-29 16:23:00,
2013-01-29 11:33:00,24.0,20.0,27.91,East,91,2.0,3.0,84,0.00,,,0.00,,2013-01-29 16:33:00,
2013-01-29 11:43:00,24.0,20.0,27.91,East,91,2.0,3.0,84,0.00,,,0.00,,2013-01-29 16:43:00,
2013-01-29 11:53:00,26.0,22.0,27.91,SSW,208,0.0,1.0,85,0.00,,,0.00,,2013-01-29 16:53:00,
2013-01-29 12:03:00,26.0,22.0,27.90,ENE,78,1.0,2.0,83,0.00,,,0.00,,2013-01-29 17:03:00,
2013-01-29 12:12:00,26.0,22.0,27.90,ENE,78,1.0,2.0,83,0.00,,,0.00,,2013-01-29 17:12:00,
2013-01-29 12:22:00,26.0,22.0,27.90,ENE,78,1.0,2.0,83,0.00,,,0.00,,2013-01-29 17:22:00,
2013-01-29 12:33:00,26.0,22.0,27.90,ENE,78,1.0,2.0,83,0.00,,,0.00,,2013-01-29 17:33:00,
2013-01-29 12:42:00,26.0,22.0,27.90,ENE,78,1.0,2.0,83,0.00,,,0.00,,2013-01-29 17:42:00,
2013-01-29 12:53:00,29.0,24.0,27.89,ESE,114,0.0,1.0,82,0.00,,,0.00,,2013-01-29 17:53:00,
2013-01-29 13:04:00,29.0,24.0,27.89,WSW,248,1.0,3.0,81,0.00,,,0.00,,2013-01-29 18:04:00,
2013-01-29 13:13:00,29.0,24.0,27.89,WSW,248,1.0,3.0,81,0.00,,,0.00,,2013-01-29 18:13:00,
2013-01-29 13:22:00,29.0,24.0,27.88,SW,214,0.0,3.0,82,0.00,,,0.00,,2013-01-29 18:22:00,
2013-01-29 13:33:00,31.0,25.0,27.87,East,90,2.0,3.0,77,0.00,,,0.00,,2013-01-29 18:33:00,
2013-01-29 13:42:00,31.0,25.0,27.87,East,90,2.0,3.0,77,0.00,,,0.00,,2013-01-29 18:42:00,
2013-01-29 13:52:00,31.0,25.0,27.87,East,90,2.0,3.0,77,0.00,,,0.00,,2013-01-29 18:52:00,
2013-01-29 14:03:00,29.0,24.0,27.86,SW,224,1.0,5.0,82,0.00,,,0.00,,2013-01-29 19:03:00,
2013-01-29 14:12:00,29.0,24.0,27.86,SW,224,1.0,5.0,82,0.00,,,0.00,,2013-01-29 19:12:00,
2013-01-29 14:23:00,29.0,24.0,27.86,SW,224,1.0,5.0,82,0.00,,,0.00,,2013-01-29 19:23:00,
2013-01-29 14:33:00,29.0,24.0,27.86,SW,224,1.0,5.0,82,0.00,,,0.00,,2013-01-29 19:33:00,
2013-01-29 14:42:00,29.0,24.0,27.86,SW,224,1.0,5.0,82,0.00,,,0.00,,2013-01-29 19:42:00,
2013-01-29 15:03:00,30.0,26.0,27.84,East,101,1.0,4.0,84,0.00,,,0.00,,2013-01-29 20:03:00,
2013-01-29 15:13:00,30.0,26.0,27.84,East,101,1.0,4.0,84,0.00,,,0.00,,2013-01-29 20:13:00,
2013-01-29 15:23:00,30.0,26.0,27.85,SW,221,0.0,1.0,84,0.00,,,0.00,,2013-01-29 20:23:00,
2013-01-29 15:33:00,31.0,27.0,27.86,WSW,246,0.0,1.0,86,0.00,,,0.00,,2013-01-29 20:33:00,
2013-01-29 15:42:00,31.0,27.0,27.86,WSW,246,0.0,1.0,86,0.00,,,0.00,,2013-01-29 20:42:00,
2013-01-29 15:53:00,31.0,27.0,27.85,ESE,110,1.0,4.0,86,0.00,,,0.00,,2013-01-29 20:53:00,
2013-01-29 16:03:00,31.0,27.0,27.86,ESE,114,1.0,2.0,86,0.00,,,0.00,,2013-01-29 21:03:00,
2013-01-29 16:12:00,31.0,27.0,27.86,ESE,114,1.0,2.0,86,0.00,,,0.00,,2013-01-29 21:12:00,
2013-01-29 16:22:00,30.0,27.0,27.85,East,100,3.0,4.0,87,0.00,,,0.00,,2013-01-29 21:22:00,
2013-01-29 16:33:00,30.0,27.0,27.85,East,98,3.0,5.0,88,0.00,,,0.00,,2013-01-29 21:33:00,
2013-01-29 16:42:00,30.0,27.0,27.85,East,98,3.0,5.0,88,0.00,,,0.00,,2013-01-29 21:42:00,
2013-01-29 16:53:00,30.0,27.0,27.87,ESE,108,1.0,4.0,88,0.00,,,0.00,,2013-01-29 21:53:00,
2013-01-29 17:03:00,30.0,27.0,27.87,East,99,0.0,3.0,88,0.00,,,0.00,,2013-01-29 22:03:00,
2013-01-29 17:12:00,30.0,27.0,27.87,East,99,0.0,3.0,88,0.00,,,0.00,,2013-01-29 22:12:00,
2013-01-29 17:22:00,30.0,27.0,27.86,East,88,1.0,2.0,89,0.00,,,0.00,,2013-01-29 22:22:00,
2013-01-29 17:33:00,30.0,27.0,27.87,ENE,71,0.0,2.0,90,0.00,,,0.00,,2013-01-29 22:33:00,
2013-01-29 17:42:00,30.0,27.0,27.87,ENE,71,0.0,2.0,90,0.00,,,0.00,,2013-01-29 22:42:00,
2013-01-29 17:53:00,30.0,28.0,27.87,East,80,2.0,5.0,91,0.00,,,0.00,,2013-01-29 22:53:00,
2013-01-29 18:02:00,30.0,27.0,27.87,ENE,78,1.0,5.0,90,0.00,,,0.00,,2013-01-29 23:02:00,
2013-01-29 18:12:00,30.0,27.0,27.87,ENE,78,1.0,5.0,90,0.00,,,0.00,,2013-01-29 23:12:00,
2013-01-29 18:23:00,30.0,27.0,27.88,ESE,113,1.0,4.0,90,0.00,,,0.00,,2013-01-29 23:23:00,
2013-01-29 18:33:00,30.0,27.0,27.88,East,94,0.0,2.0,90,0.00,,,0.00,,2013-01-29 23:33:00,
2013-01-29 18:42:00,30.0,27.0,27.88,East,94,0.0,2.0,90,0.00,,,0.00,,2013-01-29 23:42:00,
2013-01-29 18:53:00,30.0,27.0,27.88,East,94,0.0,2.0,90,0.00,,,0.00,,2013-01-29 23:53:00,
2013-01-29 19:03:00,30.0,28.0,27.86,ENE,61,3.0,5.0,91,0.00,,,0.00,,2013-01-30 00:03:00,
2013-01-29 19:12:00,30.0,28.0,27.86,ENE,61,3.0,5.0,91,0.00,,,0.00,,2013-01-30 00:12:00,
2013-01-29 19:22:00,29.0,27.0,27.86,East,82,3.0,5.0,91,0.00,,,0.00,,2013-01-30 00:22:00,
2013-01-29 19:32:00,29.0,27.0,27.86,East,82,3.0,5.0,91,0.00,,,0.00,,2013-01-30 00:32:00,
2013-01-29 19:43:00,29.0,27.0,27.86,East,82,3.0,5.0,91,0.00,,,0.00,,2013-01-30 00:43:00,
2013-01-29 19:53:00,29.0,27.0,27.86,East,82,3.0,5.0,91,0.00,,,0.00,,2013-01-30 00:53:00,
2013-01-29 20:02:00,29.0,26.0,27.88,East,82,3.0,6.0,90,0.00,,,0.00,,2013-01-30 01:02:00,
2013-01-29 20:12:00,29.0,26.0,27.88,East,82,3.0,6.0,90,0.00,,,0.00,,2013-01-30 01:12:00,
2013-01-29 20:22:00,29.0,27.0,27.88,ENE,76,3.0,5.0,91,0.00,,,0.00,,2013-01-30 01:22:00,
2013-01-29 20:32:00,29.0,27.0,27.87,ESE,107,3.0,3.0,91,0.00,,,0.00,,2013-01-30 01:32:00,
2013-01-29 20:42:00,29.0,27.0,27.87,ESE,107,3.0,3.0,91,0.00,,,0.00,,2013-01-30 01:42:00,
2013-01-29 20:52:00,29.0,27.0,27.86,East,101,3.0,5.0,92,0.00,,,0.00,,2013-01-30 01:52:00,
2013-01-29 21:02:00,29.0,27.0,27.86,ESE,111,2.0,3.0,93,0.00,,,0.00,,2013-01-30 02:02:00,
2013-01-29 21:12:00,29.0,27.0,27.86,ESE,111,2.0,3.0,93,0.00,,,0.00,,2013-01-30 02:12:00,
2013-01-29 21:22:00,29.0,27.0,27.86,East,88,2.0,3.0,94,0.00,,,0.00,,2013-01-30 02:22:00,
2013-01-29 21:33:00,29.0,27.0,27.86,ENE,70,2.0,4.0,94,0.00,,,0.00,,2013-01-30 02:33:00,
2013-01-29 21:42:00,29.0,27.0,27.86,ENE,70,2.0,4.0,94,0.00,,,0.00,,2013-01-30 02:42:00,
2013-01-29 21:53:00,29.0,28.0,27.86,East,90,3.0,5.0,95,0.00,,,0.00,,2013-01-30 02:53:00,
2013-01-29 22:03:00,29.0,28.0,27.86,ENE,72,1.0,4.0,95,0.00,,,0.00,,2013-01-30 03:03:00,
2013-01-29 22:12:00,29.0,28.0,27.86,ENE,72,1.0,4.0,95,0.00,,,0.00,,2013-01-30 03:12:00,
2013-01-29 22:22:00,29.0,28.0,27.86,ENE,72,1.0,4.0,95,0.00,,,0.00,,2013-01-30 03:22:00,
2013-01-29 22:32:00,29.0,28.0,27.86,ENE,72,1.0,4.0,95,0.00,,,0.00,,2013-01-30 03:32:00,
2013-01-29 22:42:00,29.0,28.0,27.86,ENE,72,1.0,4.0,95,0.00,,,0.00,,2013-01-30 03:42:00,
2013-01-29 23:02:00,30.0,29.0,27.84,East,80,3.0,6.0,95,0.00,,,0.00,,2013-01-30 04:02:00,
2013-01-29 23:12:00,30.0,29.0,27.84,East,80,3.0,6.0,95,0.00,,,0.00,,2013-01-30 04:12:00,
2013-01-29 23:22:00,30.0,29.0,27.84,East,80,3.0,6.0,95,0.00,,,0.00,,2013-01-30 04:22:00,
2013-01-29 23:32:00,30.0,29.0,27.83,ESE,109,3.0,6.0,96,0.00,,,0.00,,2013-01-30 04:32:00,
2013-01-29 23:42:00,30.0,29.0,27.83,ESE,109,3.0,6.0,96,0.00,,,0.00,,2013-01-30 04:42:00,
2013-01-29 23:52:00,30.0,29.0,27.83,ESE,109,3.0,6.0,96,0.00,,,0.00,,2013-01-30 04:52:00,